Location: Brabourne
(51.1333°N, 1.0000°E)
Time: 20:17:38
(UTC+00:00)

Cosmos 1825 Rocket - Pass Details

Date: 18 October 2021
Orbit: 604 x 631 km, 82.5° (Epoch: 03 December)

Event Time Altitude Azimuth Distance (km) Brightness Sun altitude
Rises 18:03:32 0° 4° (N) 2,889 6.9 -11.2°
Reaches altitude 10° 18:07:13 10° 36° (NE) 1,972 5.8 -11.8°
Enters shadow 18:08:29 12° 53° (NE) 1,850 5.5 -12.0°
